Tracking 17138 objects as of 8-July-2015
HD Live streaming from Space Station

CHINASAT 5B (SINOSAT 1)

Track CHINASAT 5B (SINOSAT 1) now!
CHINASAT 5B (SINOSAT 1) is classified as:


NORAD ID: 25404
Int'l Code: 1998-044A
Perigee: 36,063.1 km
Apogee: 36,141.0 km
Inclination: 3.0 °
Period: 1,451.9 minutes
Semi major axis: 42473 km
RCS: 25.1188 m2 (large)
Launch date: July 18, 1998
Source: People's Republic of China (PRC)

11 C-band, broadcasting, business services, direct-to-home TV broadcasting, telecommunications, VSAT networks; Asia Pacific region.
Your satellite tracking list
Your tracking list is empty





NASA's NSSDC Master Catalog

Two Line Element Set (TLE):
1 25404U 98044A   15187.91665331 -.00000314  00000-0  00000+0 0  9994
2 25404 003.0437 069.7876 0009168 099.8922 226.9062 00.99182035 62248

Source of the keplerian elements: AFSPC

N2YO: 316